DECAYED

STARLINK-4792, 53862 (Decayed)

Orbit data source: Space-Track

STARLINK-4792, 53862 was a payload satellite owned by SpaceX/Seattle (US) in LEO that was launched on Mon, 19 Sep 2022 UTC via an FALCON 9 launch vehicle from the Air Force Eastern Test Range (AFETR). Payload-class satellites include a variety of spacecraft equipped with specific instruments for various scientific and technological missions. These include communications satellites like Starlink; space stations such as the ISS; scientific satellites like the Hubble; Earth observation satellites from companies like Planet Labs, Umbra, and HawkEye 360; GPS; miniature CubeSats for education and research; and military/defense satellites.

Not visible in the next 10 days
Identifier
53862, 2022-114AW
Orbit
Decayed
Country
Flag of USUS
Related business
Manufacturer
SpaceX/Seattle
Mission
Decayed Commercial Communications
Bus & Motor
STARLINK, Unknown motor
Mass
305 kg wet, ~290 kg dry
Launch date (UTC)
2022-09-19 (4 years ago)
Launch vehicle
FALCON 9
Launch site
Air Force Eastern Test Range (AFETR)
Object type
Payload
Rocket body
Debris
Shape & HBR
Box + 1 Pan, 10.1 m
Radar Cross Section
13.562 m², Large (>1 m²)

Expand to show TLE details & history
Last TLE update: 1 year ago

TLE from 1 year ago
0 STARLINK-4792
1 53862U 22114AW  24364.62639397  .10102167  12401-4  40902-3 0  9996
2 53862  53.1922  54.5479 0003758 145.8290 346.3191 16.43767329127199
Epoch: 2024-12-29T15:02Z
TLE epoch observation values (Epoch: 2024-12-29T15:02:00.439Z)
Latitude
36.5444°
Longitude
-122.97837°
Altitude
156.286 km
Speed
7.819 km/s
True Right ascension
13h 24m 20s
True Declination
36° 21' 54"
Sunlit
Object was in daylight at epoch
Visualization orbit readout
Latitude
Unknown
Longitude
Unknown
Altitude
Unknown
Speed
Unknown
Apparent Right ascension
Unknown
Apparent Declination
Unknown
Sunlit
N/A
Visualization observer readout
Local Sidereal Time
21:30:24
Azimuth
Unknown
Elevation
Unknown
Doppler factor
Unknown
Orbital elements
Apogee altitude
158.519 km
Perigee altitude
153.608 km
Semi-major axis
6,534.2 km
Eccentricity
0.00038
Inclination
53.1922°
RAAN
54.5479°
Arg. of periapsis
145.829°
True anomaly
346.30891°
Mean anomaly
346.3191°
Eccentric anomaly
346.31401°
Mean motion
4.10917 °/min
Orbital period
87.61 mins
BSTAR
0.00040902
Loading maneuver chart data...
Computing Atmospheric mass density...
Loading historical data...
Loading historical data...
Loading historical data...
Loading historical data...
Loading historical data...
Loading historical data...
Loading historical data...

Documentation

Showing up to 5 results
|